Date String (YYYY-MM-DD hh:mm:ss) UTC,Instrument flags,absolute air pressure of the measurement (hPa),sample flow rate (lpm),inlet stack bypass flow (lpm),air temperature of the measurement (°C),ambient temperature measured by the external sensor (°C),aerosol sample conditioner tube jacket temperature (°C),OPC LED temperature (°C),internal box temperature (°C),relative humidity of the measurement (%),span deviation,mass concentration of particles derived from Lorenz-Mie calculation of OPC scattering (μg/m³),mass concentration of particles derived from Lorenz-Mie calculation of OPC scattering (μg/m³),mass concentration of particles derived from Lorenz-Mie calculation of OPC scattering (μg/m³)
DateTimeUTC,F1_M11,P_M11,Q1_M11,Q2_M11,T1_M11,T2_M11,T3_M11,T4_M11,T5_M11,U1_M11,ZSPAN_M11,X0_M11,X2_M11,X1_M11
2024-06-07 19:00:00,SystemResetWarning,0826.9,5.01,000.00,028.6,027.3,000.0,037.0,030.2,022.5,0000.0,0013.77,0003.59,0002.05
2024-06-07 19:01:00,SystemResetWarning,0826.9,5.00,000.00,028.7,027.6,000.0,036.9,030.4,021.2,0000.0,0014.43,0003.61,0002.07
2024-06-07 19:02:00,SystemResetWarning,0826.9,5.00,000.00,028.8,027.9,000.0,036.9,030.5,020.4,0000.0,0014.88,0003.58,0002.07
2024-06-07 19:03:00,SystemResetWarning,0826.9,5.00,000.00,028.8,028.2,000.0,037.0,030.7,020.3,0000.0,0015.35,0003.55,0002.07
2024-06-07 19:04:00,SystemResetWarning,0826.9,5.00,000.00,028.9,028.4,000.0,037.0,030.8,020.5,0000.0,0015.25,0003.51,0002.07
2024-06-07 19:05:00,SystemResetWarning,0826.9,5.00,000.00,029.0,028.6,000.0,037.0,030.9,018.9,0000.0,0016.45,0003.46,0002.07
2024-06-07 19:06:00,SystemResetWarning,0826.9,4.99,000.00,029.1,028.3,000.0,037.1,030.8,019.6,0000.0,0015.52,0003.46,0002.05
2024-06-07 19:07:00,SystemResetWarning,0826.8,4.99,000.00,028.9,026.3,000.0,037.2,029.8,019.0,0000.0,0015.23,0003.49,0002.05
2024-06-07 19:08:00,SystemResetWarning,0826.8,5.01,000.00,028.5,025.5,000.0,037.2,029.4,019.1,0000.0,0015.57,0003.48,0002.04
2024-06-07 19:09:00,SystemResetWarning,0826.8,5.01,000.00,028.5,026.1,000.0,037.1,029.6,019.7,0000.0,0015.98,0003.42,0002.02
2024-06-07 19:10:00,SystemResetWarning,0826.8,4.99,000.00,028.5,026.5,000.0,037.0,029.9,019.7,0000.0,0016.03,0003.44,0002.00
2024-06-07 19:11:00,SystemResetWarning,0826.8,4.99,000.00,028.6,026.9,000.0,036.9,030.1,019.9,0000.0,0016.62,0003.38,0001.95
2024-06-07 19:12:00,SystemResetWarning,0826.6,5.00,000.00,028.6,027.3,000.0,036.9,030.3,018.8,0000.0,0016.37,0003.34,0001.93
2024-06-07 19:13:00,SystemResetWarning,0826.6,5.01,000.00,028.7,027.7,000.0,036.9,030.5,018.9,0000.0,0016.73,0003.35,0001.93
2024-06-07 19:14:00,SystemResetWarning,0826.6,5.01,000.00,028.8,027.9,000.0,036.9,030.6,018.6,0000.0,0016.56,0003.38,0001.94
2024-06-07 19:15:00,SystemResetWarning,0826.6,5.00,000.00,028.9,028.2,000.0,036.9,030.8,019.9,0000.0,0015.84,0003.37,0001.93
2024-06-07 19:16:00,SystemResetWarning,0826.6,5.00,000.00,029.0,028.4,000.0,037.0,030.9,020.7,0000.0,0014.13,0003.35,0001.93
2024-06-07 19:17:00,SystemResetWarning,0826.6,5.00,000.00,029.1,028.6,000.0,037.0,031.0,019.1,0000.0,0014.64,0003.36,0001.93
2024-06-07 19:18:00,SystemResetWarning,0826.6,4.99,000.00,029.1,027.9,000.0,037.1,030.6,018.9,0000.0,0014.99,0003.37,0001.91
2024-06-07 19:19:00,SystemResetWarning,0826.6,5.01,000.00,028.8,025.9,000.0,037.2,029.6,020.2,0000.0,0015.83,0003.37,0001.91
2024-06-07 19:20:00,SystemResetWarning,0826.6,5.01,000.00,028.5,025.7,000.0,037.2,029.5,020.0,0000.0,0015.63,0003.37,0001.91
2024-06-07 19:21:00,SystemResetWarning,0826.6,4.98,000.00,028.5,026.3,000.0,037.1,029.7,020.8,0000.0,0014.98,0003.37,0001.91
2024-06-07 19:22:00,SystemResetWarning,0826.7,5.01,000.00,028.5,026.7,000.0,037.0,030.0,021.7,0000.0,0014.04,0003.32,0001.92
2024-06-07 19:23:00,SystemResetWarning,0826.8,5.01,000.00,028.6,027.1,000.0,036.9,030.2,021.2,0000.0,0013.89,0003.34,0001.93
2024-06-07 19:24:00,SystemResetWarning,0826.8,5.00,000.00,028.7,027.5,000.0,036.9,030.4,020.8,0000.0,0013.61,0003.36,0001.93
2024-06-07 19:25:00,SystemResetWarning,0826.8,5.00,000.00,028.8,027.8,000.0,036.9,030.5,021.0,0000.0,0013.16,0003.35,0001.94
2024-06-07 19:26:00,SystemResetWarning,0826.8,4.99,000.00,028.9,028.1,000.0,036.9,030.7,021.8,0000.0,0013.38,0003.35,0001.93
2024-06-07 19:27:00,SystemResetWarning,0826.8,5.00,000.00,029.0,028.3,000.0,037.0,030.8,022.0,0000.0,0013.45,0003.39,0001.92
2024-06-07 19:28:00,SystemResetWarning,0826.8,5.01,000.00,029.0,028.5,000.0,037.0,030.9,021.2,0000.0,0012.99,0003.41,0001.94
2024-06-07 19:29:00,SystemResetWarning,0826.7,5.01,000.00,029.1,028.7,000.0,037.1,031.0,020.9,0000.0,0013.50,0003.41,0001.96
2024-06-07 19:30:00,SystemResetWarning,0826.8,4.99,000.00,029.1,027.4,000.0,037.2,030.4,020.4,0000.0,0013.78,0003.39,0001.97
2024-06-07 19:31:00,SystemResetWarning,0826.7,5.01,000.00,028.7,025.7,000.0,037.2,029.5,019.1,0000.0,0014.18,0003.42,0001.97
2024-06-07 19:32:00,SystemResetWarning,0826.6,5.01,000.00,028.5,026.0,000.0,037.2,029.6,018.7,0000.0,0015.13,0003.40,0001.97
2024-06-07 19:33:00,SystemResetWarning,0826.6,4.99,000.00,028.5,026.5,000.0,037.1,029.9,018.0,0000.0,0015.58,0003.43,0001.97
2024-06-07 19:34:00,SystemResetWarning,0826.6,5.00,000.00,028.6,026.9,000.0,037.0,030.1,018.0,0000.0,0015.91,0003.42,0001.97
2024-06-07 19:35:00,SystemResetWarning,0826.4,5.01,000.00,028.7,027.4,000.0,037.0,030.3,018.4,0000.0,0016.33,0003.39,0001.97
2024-06-07 19:36:00,SystemResetWarning,0826.3,5.01,000.00,028.7,027.7,000.0,037.0,030.4,018.6,0000.0,0016.31,0003.34,0001.96
2024-06-07 19:37:00,SystemResetWarning,0826.4,5.00,000.00,028.8,028.0,000.0,037.0,030.6,017.9,0000.0,0016.54,0003.40,0001.94
2024-06-07 19:38:00,SystemResetWarning,0826.5,5.00,000.00,028.9,028.3,000.0,037.0,030.7,017.4,0000.0,0018.24,0003.48,0001.94
2024-06-07 19:39:00,SystemResetWarning,0826.6,4.99,000.00,029.0,028.6,000.0,037.1,030.8,017.1,0000.0,0018.21,0003.45,0001.94
2024-06-07 19:40:00,SystemResetWarning,0826.5,5.00,000.00,029.0,028.5,000.0,037.1,030.8,017.1,0000.0,0017.17,0003.44,0001.92
2024-06-07 19:41:00,SystemResetWarning,0826.4,4.99,000.00,028.8,026.7,000.0,037.2,029.8,016.9,0000.0,0017.30,0003.50,0001.92
2024-06-07 19:42:00,SystemResetWarning,0826.4,5.01,000.00,028.5,025.7,000.0,037.2,029.4,017.1,0000.0,0017.00,0003.50,0001.93
2024-06-07 19:43:00,SystemResetWarning,0826.5,5.00,000.00,028.5,026.3,000.0,037.1,029.6,016.9,0000.0,0016.76,0003.53,0001.93
2024-06-07 19:44:00,SystemResetWarning,0826.5,4.99,000.00,028.5,026.7,000.0,037.0,029.9,017.0,0000.0,0016.21,0003.51,0001.92
2024-06-07 19:45:00,SystemResetWarning,0826.4,5.00,000.00,028.5,027.2,000.0,037.0,030.1,017.5,0000.0,0016.15,0003.51,0001.91
2024-06-07 19:46:00,SystemResetWarning,0826.5,5.01,000.00,028.6,027.6,000.0,037.0,030.3,016.9,0000.0,0015.96,0003.54,0001.90
2024-06-07 19:47:00,SystemResetWarning,0826.5,5.01,000.00,028.7,027.9,000.0,037.0,030.5,017.4,0000.0,0015.96,0003.55,0001.89
2024-06-07 19:48:00,SystemResetWarning,0826.6,5.00,000.00,028.8,028.2,000.0,037.0,030.6,017.5,0000.0,0014.96,0003.45,0001.90
2024-06-07 19:49:00,SystemResetWarning,0826.6,5.00,000.00,028.9,028.4,000.0,037.0,030.7,017.1,0000.0,0013.43,0003.38,0001.89
2024-06-07 19:50:00,SystemResetWarning,0826.5,5.00,000.00,028.9,028.7,000.0,037.0,030.8,017.2,0000.0,0012.44,0003.34,0001.88
2024-06-07 19:51:00,SystemResetWarning,0826.6,4.99,000.00,029.0,028.1,000.0,037.1,030.5,016.6,0000.0,0012.57,0003.42,0001.88
2024-06-07 19:52:00,SystemResetWarning,0826.6,5.00,000.00,028.7,026.0,000.0,037.1,029.6,017.0,0000.0,0012.28,0003.40,0001.89
2024-06-07 19:53:00,SystemResetWarning,0826.6,5.01,000.00,028.4,025.8,000.0,037.1,029.4,017.7,0000.0,0010.99,0003.34,0001.87
2024-06-07 19:54:00,SystemResetWarning,0826.6,5.00,000.00,028.4,026.4,000.0,037.1,029.7,017.8,0000.0,0011.38,0003.34,0001.86
2024-06-07 19:55:00,SystemResetWarning,0826.6,5.00,000.00,028.5,026.9,000.0,037.0,030.0,018.0,0000.0,0011.28,0003.30,0001.86
2024-06-07 19:56:00,SystemResetWarning,0826.5,5.00,000.00,028.6,027.3,000.0,037.0,030.2,018.3,0000.0,0011.07,0003.26,0001.85
2024-06-07 19:57:00,SystemResetWarning,0826.5,5.00,000.00,028.6,027.7,000.0,036.9,030.4,018.3,0000.0,0011.32,0003.25,0001.86
2024-06-07 19:58:00,SystemResetWarning,0826.5,4.99,000.00,028.7,028.1,000.0,036.9,030.5,018.0,0000.0,0011.86,0003.29,0001.86
2024-06-07 19:59:00,SystemResetWarning,0826.6,5.00,000.00,028.8,028.3,000.0,037.0,030.7,017.5,0000.0,0012.29,0003.29,0001.85
